Location: D�rnast
(49.6426°N, 11.9755°E)
Time: 21:07:07
(UTC+00:00)

ARGOS - Pass Details

Date: 24 January 2021
Orbit: 821 x 834 km, 98.4° (Epoch: 01 March)

Event Time Altitude Azimuth Distance (km) Brightness Sun altitude
Rises 17:55:55 0° 159° (SSE) 3,343 6.2 -19.4°
Reaches altitude 10° 17:58:15 10° 158° (SSE) 2,416 5.4 -19.8°
Maximum altitude 18:03:36 78° 73° (ENE) 848 3.0 -20.7°
Drops below altitude 10° 18:09:00 10° 348° (NNW) 2,440 5.7 -21.5°
Sets 18:11:22 0° 347° (NNW) 3,380 6.4 -21.9°
